Regional Weather Roundup
Issued by NWS Pendleton, OR

Home | Current Version | Previous Version | Text Only | Print | Product List | Glossary On
Versions: 1 2 3 4 5 6 7 8 9 10 11 12 13 14 15 16 17 18 19 20 21 22 23 24 25 26 27 28 29 30 31 32 33 34 35 36 37 38 39 40 41 42 43 44 45 46 47 48 49 50
000
ASUS46 KPDT 290525
RWRPDT
PENDLETON REGIONAL WEATHER ROUNDUP
NATIONAL WEATHER SERVICE PENDLETON OREGON
900 PM PST FRI NOV 28 2014

NOTE: FAIR INDICATES FEW OR NO CLOUDS BELOW 12,000 FEET WITH NO
SIGNIFICANT WEATHER AND/OR OBSTRUCTIONS TO VISIBILITY.

# INDICATES UNOFFICIAL STATION AND DATA

WAZ520-290610-
EAST SLOPES OF WASHINGTON CASCADES

CITY            SKY/WX      TMP DP  RH  WIND    PRES   REMARKS
#BULLFROG 2SW   N/A         33  32  96  W6      27.00R
#CLE ELUM HS    N/A         36  30  79  W7      29.36R
#CLE ELUM 2NW   N/A         34  29  82  SW5     N/A
#CLE ELUM LAKE  N/A         33  28  82  W3      29.33R
#CLIFFDEL 2NW   N/A         33  31  92  W6      N/A
#GLENWOOD       N/A         40  36  85  SW12    29.39S WCI 33
#MANASTASH CYN  N/A         36  33  89  CALM    29.34S
#NELSON         N/A         34  33  96  CALM    29.41R
#NELSON 3SW     N/A         33  29  85  NW6     29.56S
#NILE           N/A         37  33  85  W3      28.64R
#RONALD 2NW     N/A         35  29  78  W3      29.28S
#SNOWDEN        N/A         39  36  89  CALM    N/A
#TEANAWAY 4NE   N/A         36  32  85  W3      N/A
#TROUT LAKE HS  N/A         40  36  85  W7      N/A
#TROUT LAKE 1NE N/A         38  35  89  W16G24  29.42S WCI 29
$$

WAZ521-290610-
SIMCOE HIGHLANDS

CITY            SKY/WX      TMP DP  RH  WIND    PRES   REMARKS
#BICKLETON HS   N/A         42  38  86  W17G31  29.50S WCI 34
#CENTERVILLE 4W N/A         43  39  86  W14     29.22R WCI 36
#CENTERVILLE 1SWN/A         43  39  86  W15     29.41R WCI 36
#GOLDENDALE     N/A         47  45  93  W12     N/A    WCI 42
#GOLDENDALE 1NE N/A         46  42  86  SW7     N/A
#GOLDENDALE 1S  N/A         44  40  86  W15     29.42R WCI 37
#GOLDENDALE 5WNWN/A         44  39  82  SW12    29.41R WCI 38
#GOODNOE HILLS  N/A         48  42  80  NW17    N/A    WCI 42
#LYLE 6NE       N/A         42  40  93  SW7     29.42R
$$

WAZ026-290610-
KITTITAS VALLEY

CITY            SKY/WX      TMP DP  RH  WIND    PRES   REMARKS
ELLENSBURG AP   CLOUDY      42  31  65  NW25G35 29.34R WCI 32
#ELLENSBURG CWU N/A         40  34  79  N15     29.31S WCI 32
#ELLENSBURG 3NE N/A         39  33  79  N13     29.37R WCI 31
#ELLENSBURG     N/A         42  34  73  NW10    N/A
#ELLENSBURG 1E  N/A         39  32  76  NW3     N/A
#KITTITAS 4N    N/A         40  30  67  W10     29.40R
#KITTITAS 3S    N/A         39  36  89  W7      29.37R
#THORP 6N       N/A         36  30  79  NW22G31 29.36R WCI 25
$$

WAZ027-290610-
YAKIMA VALLEY

CITY            SKY/WX      TMP DP  RH  WIND    PRES   REMARKS
SUNNYSIDE AP    N/A         50  39  66  W12     29.36R
YAKIMA AIRPORT  MOCLDY      50  34  54  CALM    29.34R
YAKIMA-VAGABOND MOCLDY      45  37  73  W8      29.35R
#DONALD 2NE     N/A         47  31  53  E3      28.23R
#GRANDVIEW      N/A         53  40  61  W2      29.37R
#MABTON         N/A         55  44  66  SW9     29.35R
#MOXEE 2E       N/A         48  28  46  W6      29.32R
#NACHES 2SW     N/A         44  34  68  SW7     29.32S
#OUTLOOK DOT    N/A         N/A N/A N/A W15     N/A
#SELAH 8E       N/A         41  37  86  CALM    N/A
#TERRACE HTS    N/A         47  37  68  N3      29.31R
#TOPPENISH      N/A         50  40  68  CALM    29.26R
#WAPATO 4NE     N/A         47  31  53  E3      28.23R
#WEST VALLEY    N/A         48  32  54  W6      29.31R
#WHITE SWAN 5E  N/A         46  39  76  SW9     29.36R
#WILEY CITY 3W  N/A         42  32  67  CALM    29.33R
$$

WAZ028-290610-
LOWER COLUMBIA BASIN...WASHINGTON

CITY            SKY/WX      TMP DP  RH  WIND    PRES   REMARKS
PASCO           PTCLDY      54  46  74  SW16    29.35R
PROSSER AWOS    N/A         55  41  59  SW20    29.40R
RICHLAND AWOS   PTCLDY      55  45  69  SW24G38 29.33S
#BASIN CITY 5SW N/A         55  46  72  SW8     29.33R
#BENTON CITY    N/A         54  44  69  SW22G35 29.25S
#CONNELL 5N     N/A         51  44  77  SW17G25 29.30S
#CONNELL 5NW    N/A         52  45  77  SW17G25 29.27R
#ELTOPIA 6NW    N/A         53  45  74  SW17G28 28.32S
#KAHLOTUS       N/A         51  46  83  W21G29  29.30S
#KENNEWICK      N/A         33  32  96  W6      27.00R
#KENNEWICK 3S   N/A         54  45  71  W9      29.32S
#PATERSON       N/A         53  46  77  W7      29.38R
#PROSSER        N/A         54  41  61  SW17G41 29.35R
#SAGEMOOR 2W    N/A         54  46  74  S10     29.18F
#TOUCHET 2S     N/A         59  43  55  SW22G29 29.31S
#WEST PASCO     N/A         55  46  72  SW13    29.29R
$$

WAZ029-290610-
FOOTHILLS OF THE BLUES...WASHINGTON

CITY            SKY/WX      TMP DP  RH  WIND    PRES   REMARKS
WALLA WALLA AP  CLOUDY      59  39  47  SW32G41 29.37R
#COLLEGE PLACE  N/A         59  37  44  SW15    29.40S
#DAYTON SCHOOL  N/A         54  37  52  S14G31  29.39F
#LOWDEN 2SE     N/A         60  42  51  W15G35  29.34R
#PLEASANT VIEW 1N/A         49  43  80  S18G26  29.35S WCI 43
#PRESCOTT       N/A         56  44  64  SW3     29.33R
#SUDBURY        N/A         60  N/A N/A CALM    N/A
#WHITMAN COLLEGEN/A         59  40  49  S15G41  29.41R
#WAITSBURG 5S   N/A         54  40  59  SW26G38 29.42S
#WAITSBURG 8N   N/A         51  28  41  S25     29.29F
#WALLA WALLA 5E N/A         57  38  49  S6      N/A
#WALLA WALLA U  N/A         60  41  49  SW3     29.36S
#WHITMAN MISSIONN/A         60  42  51  SW17G29 29.38R
$$

WAZ030-290610-
BLUE MOUNTAINS...WASHINGTON

CITY            SKY/WX      TMP DP  RH  WIND    PRES   REMARKS
#DIXIE 5SE      N/A         51  33  50  S31G46  29.30F
$$

ORZ009-041-WAZ024-290610-
COLUMBIA RIVER GORGE

CITY            SKY/WX      TMP DP  RH  WIND    PRES   REMARKS
HOOD RIVER AP   LGT DRIZZLE 45  39  79  W8      29.51R
THE DALLES AP   LGT RAIN    48  41  77  NW20G30 29.47R WCI 41
#ARLINGTON AIRPON/A         50  46  86  W17     29.99S
#CELILO DOT     N/A         48  40  74  SW8     N/A
#MARYHILL 2W    N/A         47  41  79  NW12    N/A    WCI 42
#MOSIER 1S      N/A         42  36  79  SW6     29.50R
#MURDOCK        N/A         48  44  86  W13     29.51R WCI 43
#RUFUS DOT      N/A         N/A N/A N/A W17G33  N/A

$$

ORZ510-290610-
NORTH CENTRAL OREGON

CITY            SKY/WX      TMP DP  RH  WIND    PRES   REMARKS
#CHENOWITH 1W   N/A         41  40  96  W18     N/A    WCI 32
#COW CYN RST AREN/A         42  41  96  SW7     N/A
#DUFUR 9E       N/A         41  39  93  NW13    29.47R WCI 34
#GRASS VALLEY   N/A         43  42  96  S3      N/A
#GRASS VALLEY 1SN/A         44  41  89  SW14G24 29.44F WCI 37
#KENT DOT       N/A         43  39  86  SW16    N/A    WCI 35
#MAUPIN SCHOOL  N/A         50  44  80  CALM    28.35S
#MORO SCHOOL    N/A         48  45  89  SW7     29.46R
#SHANIKO 5WSW   N/A         40  37  89  S23     N/A    WCI 30
#SHANIKO 4NW    N/A         40  40  100 SW10    29.45S
#TYGH VALLEY 2NEN/A         50  45  83  CALM    29.43S
#WAPANITIA AIRPON/A         46  41  83  W6      29.43F
#WASCO DOT      N/A         47  43  86  W10     N/A
#WASCO 5NE      N/A         46  43  89  W9      29.41R
$$

ORZ511-290610-
CENTRAL OREGON

CITY            SKY/WX      TMP DP  RH  WIND    PRES   REMARKS
BEND AIRPORT    LGT RAIN    43  39  86  SW17G24 29.52F WCI 35
MADRAS AIRPORT  CLOUDY      48  39  71  SW12    29.50S WCI 43
PRINEVILLE AP   CLOUDY      48  39  71  SW22G30 29.51F WCI 41
REDMOND AIRPORT MOCLDY      46  39  76  SW20G29 29.49F WCI 38
#BEND 1SW       N/A         40  40  100 SW3     N/A
#BEND-AWBREY    N/A         41  40  96  N7      29.51S
#BEND-KIM LN    N/A         43  41  93  SW8     29.49R
#CROOKED RVR RANN/A         45  40  82  SW38G48 29.48R WCI 34
#CULVER         N/A         45  39  79  S7      29.46S
#LAKE BILLY CHINN/A         46  35  65  SW14    29.59R WCI 40
#POWELL BUTTE 3EN/A         47  37  68  SW12    N/A    WCI 42
#POWELL BUTTE   N/A         46  38  73  W16     29.18F WCI 39
#PRINEVILLE 3N  N/A         47  40  76  SE8     29.43F
#WARM SPRINGS   N/A         49  44  83  CALM    29.48R


ORZ509-290610-
EAST SLOPES OF OREGON CASCADES

CITY            SKY/WX      TMP DP  RH  WIND    PRES   REMARKS
#BLUE BOX PASS  N/A         31  -16 12  S1      N/A
#BLACK BUTTE RNCN/A         41  40  96  CALM    29.50S
#CAMP SHERMAN   N/A         41  39  93  CALM    29.46F
#LA PINE DOT    N/A         40  37  89  S6      N/A
#LA PINE 4NW    N/A         40  37  89  CALM    29.59F
#LAVA BUTTE DOT N/A         39  37  92  S2      N/A
#MT BACHELOR-MIDN/A         29  28  96  S26G39  N/A    WCI 14
#SISTERS AIRPOR N/A         43  43  100 N5      29.91S
#SISTERS ODOT   N/A         43  N/A N/A W1      N/A
#SISTERS 3N     N/A         40  37  89  CALM    29.57S
#SUNRIVER       N/A         40  39  96  SW2     29.44F
#SUNRIVER AP    N/A         44  43  96  CALM    29.58R
#SUTTLE LK DOT  N/A         35  35  100 W32G47  N/A    WCI 21
#TUMALO 3W      N/A         42  38  86  S6      29.36F
#WANOGA BUTTE D N/A         32  N/A N/A W9      N/A

$$

ORZ044-290610-
LOWER COLUMBIA BASIN...OREGON

CITY            SKY/WX      TMP DP  RH  WIND    PRES   REMARKS
HERMISTON       CLOUDY      57  40  53  SW16    29.40R
#BOARDMAN 3W    N/A         53  46  77  W9      29.09S
#BOARDMAN 8SW   N/A         52  47  83  SW6     29.38R
#ECHO 8SW       N/A         57  40  53  W16G26  29.38R
#IONE SCHOOL    N/A         55  40  57  SW16G24 29.43R
#IRRIGON 4NW    N/A         54  45  71  SW9     N/A
#UMATILLA SCHOOLN/A         56  49  77  W10     29.41R
#UMATILLA       N/A         58  42  55  SW9     29.37R
$$

ORZ507-290610-
NORTHERN FOOTHILLS OF THE BLUES

CITY            SKY/WX      TMP DP  RH  WIND    PRES   REMARKS
PENDLETON AIRPT CLOUDY      56  36  47  SW25G30 29.39F
#ADAMS 3WNW     N/A         54  40  59  SW15    29.38S
#ATHENA         N/A         55  40  57  S9      29.39S
#CAYUSE         N/A         56  40  55  SW13    29.36S
#HELIX SCHOOL   N/A         54  40  59  SW22G35 29.38S
#HELIX 3N       N/A         54  40  59  SW31G43 29.40S
#HOLDMAN 5SE    N/A         56  40  55  SW20G30 29.43R
#HOLDMAN 6E     N/A         55  39  55  NE25G35 29.19S
#M-F FERNDALE   N/A         60  39  46  W7      29.39R
#M-F GROVE ELEM N/A         59  37  44  S18G37  29.36S
#M-FREEWATER 5SEN/A         59  39  47  W21G33  29.40F
#PENDLETON DNTN N/A         58  34  40  SW3     28.23S
#PDT AQUATIC CTRN/A         59  38  45  SW9     29.41S
#PENDLETON 5NE  N/A         56  40  55  SW6     29.39S
#PDT SUNRIDGE   N/A         56  39  53  W6      29.41S
#PENDLETON 7NW  N/A         56  40  55  SW15G24 26.47F
#TUTUILLA       N/A         54  40  59  S6      29.39F
#UMAPINE 2E     N/A         60  42  51  SW14    29.34R
#WESTON SCHOOL  N/A         55  35  47  W18G32  29.39S

$$

ORZ508-290610-
SOUTHERN FOOTHILLS OF THE BLUES

CITY            SKY/WX      TMP DP  RH  WIND    PRES   REMARKS
LEXINGTON       MOCLDY      52  43  71  SW25G35 29.44R
#AJAX           N/A         47  37  68  S21G35  29.40S WCI 39
#CONDON 5W      N/A         43  38  82  SW21G31 29.43S WCI 34
#FOSSIL SCHOOL  N/A         50  38  63  SW7     29.48F
#HEPPNER EOC    N/A         53  39  59  W22G41  29.37S
#HEPPNER 4NE    N/A         49  39  68  W22G35  29.41R WCI 42
#LEXINGTON 2SE  N/A         53  41  64  SW15G28 29.41R
#MIKKALO        N/A         51  40  66  SW14    29.43S
#OLEX 4N        N/A         53  44  71  SW18G28 29.42S
#RUGGS 5NE      N/A         47  38  71  SW15    29.62R WCI 41
#RUGGS 2SW      N/A         50  37  61  W20G26  29.42S

$$

ORZ502-503-290610-
BLUE MOUNTAINS

CITY            SKY/WX      TMP DP  RH  WIND    PRES   REMARKS
MEACHAM         CLOUDY      48  36  63  VRB7    29.45F
#BATTLE MTN DOT N/A         42  40  93  S7      N/A
#HARDMAN 10S    N/A         41  37  86  SW13    29.56F WCI 34
#HEPPNER 15SE   N/A         44  37  76  S2      29.33S
#LADD CYN SMT   N/A         43  30  60  SE6     N/A
#LADD CREEK ODOTN/A         48  33  56  S6      N/A
#LONG CREEK HS  N/A         47  40  76  SW15G30 29.46F WCI 41
#N POWDER DOT   N/A         47  35  63  S17     N/A    WCI 40
#PIKES PEAK     N/A         49  35  58  SW55G69 27.99S WCI 38
#TOLLGATE       N/A         40  35  82  SW9     29.43F
#TROY SCHOOL    N/A         47  45  93  S2      29.26F
#UKIAH          N/A         47  38  71  S6      29.45F
#WESTON 4E      N/A         50  36  58  S14G31  29.32F
$$

ORZ505-290610-
JOHN DAY BASIN

CITY            SKY/WX      TMP DP  RH  WIND    PRES   REMARKS
JOHN DAY        CLOUDY      49  35  58  W12     29.55F WCI 44
#DAYVILLE SCHOOLN/A         53  37  54  SE8     29.52F
#MONUMENT HS    N/A         54  36  50  S5      29.51F
#MT. VERNON 5SE N/A         47  35  63  SW13G29 29.48F WCI 41
#WINLOCK        N/A         46  39  76  N10     29.59F
$$

ORZ506-290610-
OCHOCO AND JOHN DAY HIGHLANDS

CITY            SKY/WX      TMP DP  RH  WIND    PRES   REMARKS
#BUCK CREEK DOT N/A         45  41  86  S16     N/A    WCI 38
#HORSE RIDGE DO N/A         43  35  73  S6      N/A
#KEYES SMT DOT  N/A         42  35  76  W6      N/A
#PINE MTN OBS   N/A         33  32  96  S12G30  N/A    WCI 24
#PRAIRIE CITY   N/A         45  34  65  SW3     29.56F
#SENECA         N/A         41  N/A N/A SW10G25 N/A
#SENECA 9NW     N/A         41  34  76  W1      29.56F
$$

ORZ049-290610-
GRANDE RONDE VALLEY

CITY            SKY/WX      TMP DP  RH  WIND    PRES   REMARKS
LA GRANDE       MOCLDY      48  32  54  SE10    29.45F
#COVE           N/A         52  46  80  SE2     30.03S
#COVE SCHOOL    N/A         52  38  59  SE7     29.49F
#COVE 6NW       N/A         48  36  63  SE2     29.47F
#ELGIN 3N       N/A         51  33  50  S16     29.19F
#ELGIN 1E       N/A         50  38  63  S1      N/A
#IMBLER SCHOOL  N/A         49  37  63  S15     29.45F WCI 43
#ISLAND CITY 4N N/A         42  41  96  CALM    29.57R
#LADD CYN DOT   N/A         52  33  48  S6      N/A
#UNION 1S       N/A         52  37  56  SE14    29.36F
$$

ORZ050-290610-
WALLOWA COUNTY

CITY            SKY/WX      TMP DP  RH  WIND    PRES   REMARKS
JOSEPH AIRPORT  LGT RAIN    48  32  54  S13G37  29.45F WCI 43
#ENTERPRISE AP  N/A         51  31  46  SW3     29.44F
#ENTERPRISE HS  N/A         51  34  52  S2      29.52F
#IMNAHA SCHOOL  N/A         56  35  45  S15G26  29.45F
#IMNAHA 10S     N/A         52  35  52  SW8     29.51S
#JOSEPH 3N      N/A         48  37  65  S9      29.54F
#JOSEPH 3W      N/A         45  32  60  CALM    29.37F
#LOSTINE        N/A         51  34  52  S3      29.20F
#MT HOWARD 8000 N/A         29  27  92  SW15G30 29.47S WCI 18
#PROMISE 1S     N/A         47  37  68  E7      29.49F
#SHEEP RDG 7000 N/A         34  28  78  CALM    29.43F
#WALLOWA SCHOOL N/A         53  36  52  CALM    30.29F



$$



USA.gov is the U.S. government's official web portal to all federal, state and local government web resources and services.